Regional Weather Roundup
Issued by NWS

Home | Current Version | Previous Version | Graphics & Text | Print | Product List | Glossary On
Versions: 1 2 3 4 5 6 7 8 9 10 11 12 13 14 15 16 17 18 19 20 21 22 23 24 25 26 27 28 29 30 31 32 33 34 35 36 37 38 39 40 41 42 43 44 45 46 47 48 49 50
000
ASUS43 KLOT 311600
RWRIL

ILLINOIS REGIONAL WEATHER ROUNDUP
NATIONAL WEATHER SERVICE CHICAGO/ROMEOVILLE IL
1100 AM CDT THU JUL 31 2014

NOTE: "FAIR" INDICATES FEW OR NO CLOUDS BELOW 12,000 FEET WITH NO
SIGNIFICANT WEATHER AND/OR OBSTRUCTIONS TO VISIBILITY.

* THESE STATIONS ARE NOT UNDER NWS QUALITY CONTROL. THEY ALSO MAY NOT
  REPORT WEATHER SUCH AS PRECIPITATION OR FOG.

ILZ001-002-007-009-015-016-024-311700-
NORTHWEST ILLINOIS

CITY           SKY/WX    TMP DP  RH WIND       PRES   REMARKS
MOLINE         SUNNY     78  60  53 W8        30.08S
STERLING*      SUNNY     79  64  61 NW7       30.08S HX  81
$$

ILZ003-004-008-010-011-017-018-311700-
NORTH CENTRAL ILLINOIS

CITY           SKY/WX    TMP DP  RH WIND       PRES   REMARKS
ROCKFORD       SUNNY     77  61  57 SW8       30.07R
$$

ILZ005-006-012>014-019>023-311700-
NORTHEAST ILLINOIS

CITY           SKY/WX    TMP DP  RH WIND       PRES   REMARKS
CHICAGO-OHARE  SUNNY     77  57  50 W9        30.04S
CHICAGO-MIDWAY SUNNY     79  60  52 SW12      30.05R HX  80
AURORA         SUNNY     77  63  61 SW8       30.07R
WAUKEGAN       SUNNY     76  60  57 W5        30.02S
DUPAGE AIRPORT SUNNY     78  62  57 SW7       30.05S HX  80
WHEELING       SUNNY     78  58  49 W12       30.05S
NORTHERLY ISL    N/A     76  56  49 W10         N/A
$$

LMZ740>746-311700-
SOUTHERN LAKE MICHIGAN

STATION/POSITION SKY/WX   TEMP    WIND        PRES    VSBY  WAVE
                          AIR SEA DIR/SP/G                  HT/PER
                          (F)     (DEG/KT/KT) (MB)    (MI)  (FT/S)
SOUTHERN BUOY              63 61  250/  6/ 10 1016.5R         1/ 3
WAUKEGAN HARBOR            74     220/  2/ 10   N/A
HARRISON CRIB              72     250/ 12/ 15   N/A
BURNHAM HARBOR             76     270/ 12       N/A
CALUMET HARBOR             76     230/  5/ 11 1016.2R
MICHIGAN CITY              71     200/  8/  9   N/A
MICHIGAN CITY 6N           70 69  230/  6/  8   N/A           1/ 3
ST. JOSEPH                 68 68  210/ 10/ 12   N/A           2/ 3
$$

ILZ025>027-034>036-040-047-049-050-058-095>099-311700-
WEST-CENTRAL ILLINOIS

CITY           SKY/WX    TMP DP  RH WIND       PRES   REMARKS
QUINCY         SUNNY     76  60  57 NW3       30.11R
GALESBURG*     SUNNY     79  64  61 W7        30.10S HX  80
MACOMB*        SUNNY     75  63  64 W5        30.12S
$$

ILZ028>032-037-038-041>044-048-051>054-059>061-311700-
CENTRAL ILLINOIS

CITY           SKY/WX    TMP DP  RH WIND       PRES   REMARKS
DECATUR        SUNNY     78  62  57 W6        30.11R HX  80
PEORIA         SUNNY     79  62  56 VRB7      30.09S HX  80
SPRINGFIELD    SUNNY     79  61  53 VRB5      30.10S HX  80
TAYLORVILLE    NOT AVBL
$$

ILZ033-039-045-046-055>057-062-063-311700-
EAST-CENTRAL ILLINOIS

CITY           SKY/WX    TMP DP  RH WIND       PRES   REMARKS
CHAMPAIGN      SUNNY     76  63  64 W6        30.11R
MATTOON        SUNNY     78  61  55 W6        30.10S HX  80
$$

ILZ079-100>102-311700-
SOUTHWEST ILLINOIS

CITY           SKY/WX    TMP DP  RH WIND       PRES   REMARKS
ALTON          MOSUNNY   79  61  53 VRB5      30.11  HX  80
BELLEVILLE     SUNNY     79  66  64 VRB1      30.10R HX  81
CAHOKIA*       SUNNY     81  61  50 CALM      30.09F HX  82
$$

ILZ064>066-069>071-074>076-080>082-084>086-088>090-092>094-311700-
SOUTH-CENTRAL ILLINOIS

CITY           SKY/WX    TMP DP  RH WIND       PRES   REMARKS
CARBONDALE     MOSUNNY   76  62  62 SW6       30.11S
MARION         PTSUNNY   77  64  65 SW6       30.12S
MT. VERNON     SUNNY     79  64  61 S7        30.12S HX  81
SALEM*         SUNNY    N/A N/A N/A CALM      30.11R
$$

ILZ067-068-072-073-078-083-087-091-311700-
SOUTHEAST ILLINOIS

CITY           SKY/WX    TMP DP  RH WIND       PRES   REMARKS
LAWRENCEVILLE  SUNNY     78  60  53 VRB3      30.10F
HARRISBURG*    SUNNY     76  64  66 SW7       30.12S
ROBINSON*      SUNNY     80  64  57 CALM      30.11S HX  82
$$

ABBREVIATIONS USED IN REMARKS
   TC - TEMPERATURE IN CELSIUS
  WCI - WIND CHILL INDEX
   HX - HEAT INDEX
  VSB - VISIBILITY
$$



USA.gov is the U.S. government's official web portal to all federal, state and local government web resources and services.